Flag for Uruguay Weather past 2 weeks in Salto, Uruguay

Now
50 °F

Clear.


Feels Like: 45 °F
Forecast: 49 / 57 °F
Wind: 15 mph from South

Location: Buenos Aires Airport

Current Time: Jul 23, 2014 at 6:54:13 AM

Latest Report: Jul 23, 2014 at 6:00 AM


Visibility: 10 mi

Pressure: 29.98 "Hg

Humidity: 76%

Dew point: 43 °F

Location of SaltoLocation

Historic Weather in Salto — Graph

°F

Salto temperature yesterday

Maximum temperature yesterday: 63 °F (at 12:00 AM)
Minimum temperature yesterday: 54 °F (at 9:00 PM)
Average temperature yesterday: 59 °F

Past Weeks' High & Low Weather Summary

 TemperatureHumidityPressure
High68 °F (Jul 19, 5:00 PM)100% (Jul 12, 7:00 PM)30.45 "Hg (Jul 12, 7:00 PM)
Low48 °F (Jul 9, 8:00 AM)51% (Jul 17, 4:00 PM)29.74 "Hg (Jul 22, 10:00 AM)
Average57 °F82%30.12 "Hg
* Reported Jul 8 5:00 AM — Jul 23 5:00 AM, Salto, Weather by CustomWeather, © 2014

Note: Actual official high and low records may vary slightly from our data, if they occured in-between our weather recording intervals... More about our weather records

Advertising

Salto weather history for previous 24 hours

 ConditionsComfort  
Time TempWeatherWind HumidityBarometerVisibility
5:00 AM
Jul 23
50 °FClear.13 mph71%29.98 "Hg10 mi
2:00 AM52 °FClear.14 mph72%29.98 "Hg10 mi
1:00 AM52 °FClear.13 mph72%29.95 "Hg10 mi
12:00 AM52 °FClear.23 mph72%29.92 "Hg10 mi
11:00 PM
Jul 22
54 °FMostly cloudy.26 mph88%29.92 "HgN/A
10:00 PM54 °FMostly cloudy.20 mph88%29.89 "HgN/A
9:00 PM54 °FLow clouds.22 mph94%29.86 "Hg4 mi
2:00 PM59 °FPartly sunny.5 mph88%29.77 "HgN/A
1:00 PM59 °FBroken clouds.9 mph88%29.77 "HgN/A
12:00 PM59 °FBroken clouds.9 mph94%29.80 "HgN/A
11:00 AM59 °FBroken clouds.6 mph94%29.80 "HgN/A
10:00 AM59 °FRain. Mostly cloudy.23 mph94%29.74 "Hg2 mi
9:00 AM59 °FThunderstorms. Partly sunny.9 mph94%29.80 "Hg2 mi
8:00 AM59 °FThunderstorms. Broken clouds.14 mph94%29.80 "Hg3 mi
7:00 AM59 °FThunderstorms. Cloudy.14 mph94%29.80 "Hg3 mi
6:00 AM59 °FThunderstorms. Mostly cloudy.12 mph94%29.80 "Hg2 mi
Weather by CustomWeather, © 2014

See weather overviewHow to use our weather pages